カタログに戻る

HUOERGUOSI-1

運用中科学SSO
NORAD 57044·PAYLOAD·🇨🇳 China
この衛星名は、まだ公式ソースで確認されていません。

打ち上げ Jun 15, 2023 から Taiyuan Satellite Launch Center

Loading…

次のパス (今後24時間)

TLE

最新Source: Space-Track

元期: Sep 14, 2026, 14:50 UTC

1 57044U 23085AS  26257.61839876  .00015022  00000-0  38727-3 0  9998
2 57044  97.4995  12.9671 0007648 118.0683 242.1336 15.39260676180592

AllMySatでHUOERGUOSI-1をリアルタイム追跡

Download on the App Store